Year,Month,Day,Hour,Minute,Value (Times are PST for temperature in C)
2015,06,22,00,00,19.70
2015,06,22,00,01,19.70
2015,06,22,00,02,19.70
2015,06,22,00,03,19.70
2015,06,22,00,04,19.80
2015,06,22,00,05,19.80
2015,06,22,00,06,19.80
2015,06,22,00,07,19.70
2015,06,22,00,08,19.70
2015,06,22,00,09,19.60
2015,06,22,00,10,19.50
2015,06,22,00,11,19.50
2015,06,22,00,12,19.40
2015,06,22,00,13,19.20
2015,06,22,00,14,19.10
2015,06,22,00,15,19.00
2015,06,22,00,16,18.90
2015,06,22,00,17,18.80
2015,06,22,00,18,18.60
2015,06,22,00,19,18.50
2015,06,22,00,20,18.40
2015,06,22,00,21,18.30
2015,06,22,00,22,18.10
2015,06,22,00,23,18.00
2015,06,22,00,24,17.90
2015,06,22,00,25,17.90
2015,06,22,00,26,17.80
2015,06,22,00,27,17.70
2015,06,22,00,28,17.60
2015,06,22,00,29,17.50
2015,06,22,00,30,17.50
2015,06,22,00,31,17.40
2015,06,22,00,32,17.30
2015,06,22,00,33,17.20
2015,06,22,00,34,17.10
2015,06,22,00,35,17.00
2015,06,22,00,36,16.90
2015,06,22,00,37,16.80
2015,06,22,00,38,16.70
2015,06,22,00,39,16.60
2015,06,22,00,40,16.50
2015,06,22,00,41,16.50
2015,06,22,00,42,16.40
2015,06,22,00,43,16.40
2015,06,22,00,44,16.30
2015,06,22,00,45,16.30
2015,06,22,00,46,16.30
2015,06,22,00,47,16.20
2015,06,22,00,48,16.20
2015,06,22,00,49,16.20
2015,06,22,00,50,16.20
2015,06,22,00,51,16.10
2015,06,22,00,52,16.10
2015,06,22,00,53,16.10
2015,06,22,00,54,16.10
2015,06,22,00,55,16.10
2015,06,22,00,56,16.10
2015,06,22,00,57,16.10
2015,06,22,00,58,16.10
2015,06,22,00,59,16.10
2015,06,22,01,00,16.10
2015,06,22,01,01,16.10
2015,06,22,01,02,16.10
2015,06,22,01,03,16.10
2015,06,22,01,04,16.10
2015,06,22,01,05,16.10
2015,06,22,01,06,16.10
2015,06,22,01,07,16.10
2015,06,22,01,08,16.00
2015,06,22,01,09,16.00
2015,06,22,01,10,16.00
2015,06,22,01,11,16.10
2015,06,22,01,12,16.10
2015,06,22,01,13,16.10
2015,06,22,01,14,16.10
2015,06,22,01,15,16.10
2015,06,22,01,16,16.10
2015,06,22,01,17,16.10
2015,06,22,01,18,16.10
2015,06,22,01,19,16.00
2015,06,22,01,20,16.00
2015,06,22,01,21,16.00
2015,06,22,01,22,16.00
2015,06,22,01,23,16.00
2015,06,22,01,24,15.90
2015,06,22,01,25,15.90
2015,06,22,01,26,15.90
2015,06,22,01,27,15.90
2015,06,22,01,28,15.90
2015,06,22,01,29,15.90
2015,06,22,01,30,15.90
2015,06,22,01,31,15.90
2015,06,22,01,32,15.90
2015,06,22,01,33,15.90
2015,06,22,01,34,15.90
2015,06,22,01,35,15.90
2015,06,22,01,36,15.90
2015,06,22,01,37,15.90
2015,06,22,01,38,15.90
2015,06,22,01,39,15.90
2015,06,22,01,40,16.00
2015,06,22,01,41,16.10
2015,06,22,01,42,16.10
2015,06,22,01,43,16.20
2015,06,22,01,44,16.30
2015,06,22,01,45,16.40
2015,06,22,01,46,16.50
2015,06,22,01,47,16.50
2015,06,22,01,48,16.60
2015,06,22,01,49,16.60
2015,06,22,01,50,16.70
2015,06,22,01,51,16.70
2015,06,22,01,52,16.80
2015,06,22,01,53,16.80
2015,06,22,01,54,16.80
2015,06,22,01,55,16.90
2015,06,22,01,56,17.00
2015,06,22,01,57,17.00
2015,06,22,01,58,17.10
2015,06,22,01,59,17.10
2015,06,22,02,00,17.10
2015,06,22,02,01,17.10
2015,06,22,02,02,17.10
2015,06,22,02,03,17.10
2015,06,22,02,04,17.10
2015,06,22,02,05,17.10
2015,06,22,02,06,17.10
2015,06,22,02,07,17.00
2015,06,22,02,08,16.90
2015,06,22,02,09,16.90
2015,06,22,02,10,16.90
2015,06,22,02,11,16.80
2015,06,22,02,12,16.80
2015,06,22,02,13,16.80
2015,06,22,02,14,16.70
2015,06,22,02,15,16.70
2015,06,22,02,16,16.70
2015,06,22,02,17,16.60
2015,06,22,02,18,16.50
2015,06,22,02,19,16.40
2015,06,22,02,20,16.30
2015,06,22,02,21,16.20
2015,06,22,02,22,16.10
2015,06,22,02,23,16.00
2015,06,22,02,24,15.80
2015,06,22,02,25,15.60
2015,06,22,02,26,15.50
2015,06,22,02,27,15.30
2015,06,22,02,28,15.20
2015,06,22,02,29,15.00
2015,06,22,02,30,14.90
2015,06,22,02,31,14.80
2015,06,22,02,32,14.70
2015,06,22,02,33,14.70
2015,06,22,02,34,14.70
2015,06,22,02,35,14.70
2015,06,22,02,36,14.70
2015,06,22,02,37,14.70
2015,06,22,02,38,14.70
2015,06,22,02,39,14.80
2015,06,22,02,40,14.80
2015,06,22,02,41,14.90
2015,06,22,02,42,15.00
2015,06,22,02,43,15.00
2015,06,22,02,44,15.10
2015,06,22,02,45,15.10
2015,06,22,02,46,15.20
2015,06,22,02,47,15.30
2015,06,22,02,48,15.30
2015,06,22,02,49,15.30
2015,06,22,02,50,15.40
2015,06,22,02,51,15.40
2015,06,22,02,52,15.40
2015,06,22,02,53,15.40
2015,06,22,02,54,15.40
2015,06,22,02,55,15.40
2015,06,22,02,56,15.40
2015,06,22,02,57,15.40
2015,06,22,02,58,15.40
2015,06,22,02,59,15.40
2015,06,22,03,00,15.40
2015,06,22,03,01,15.40
2015,06,22,03,02,15.30
2015,06,22,03,03,15.30
2015,06,22,03,04,15.30
2015,06,22,03,05,15.30
2015,06,22,03,06,15.30
2015,06,22,03,07,15.30
2015,06,22,03,08,15.20
2015,06,22,03,09,15.20
2015,06,22,03,10,15.20
2015,06,22,03,11,15.20
2015,06,22,03,12,15.10
2015,06,22,03,13,15.10
2015,06,22,03,14,15.10
2015,06,22,03,15,15.10
2015,06,22,03,16,15.10
2015,06,22,03,17,15.10
2015,06,22,03,18,15.10
2015,06,22,03,19,15.10
2015,06,22,03,20,15.20
2015,06,22,03,21,15.20
2015,06,22,03,22,15.30
2015,06,22,03,23,15.30
2015,06,22,03,24,15.30
2015,06,22,03,25,15.40
2015,06,22,03,26,15.40
2015,06,22,03,27,15.40
2015,06,22,03,28,15.40
2015,06,22,03,29,15.40
2015,06,22,03,30,15.40
2015,06,22,03,31,15.40
2015,06,22,03,32,15.40
2015,06,22,03,33,15.40
2015,06,22,03,34,15.40
2015,06,22,03,35,15.40
2015,06,22,03,36,15.40
2015,06,22,03,37,15.40
2015,06,22,03,38,15.40
2015,06,22,03,39,15.30
2015,06,22,03,40,15.30
2015,06,22,03,41,15.30
2015,06,22,03,42,15.40
2015,06,22,03,43,15.40
2015,06,22,03,44,15.40
2015,06,22,03,45,15.40
2015,06,22,03,46,15.50
2015,06,22,03,47,15.50
2015,06,22,03,48,15.60
2015,06,22,03,49,15.60
2015,06,22,03,50,15.60
2015,06,22,03,51,15.60
2015,06,22,03,52,15.60
2015,06,22,03,53,15.60
2015,06,22,03,54,15.60
2015,06,22,03,55,15.70
2015,06,22,03,56,15.70
2015,06,22,03,57,15.70
2015,06,22,03,58,15.70
2015,06,22,03,59,15.70
2015,06,22,04,00,15.70
2015,06,22,04,01,15.70
2015,06,22,04,02,15.70
2015,06,22,04,03,15.70
2015,06,22,04,04,15.80
2015,06,22,04,05,15.80
2015,06,22,04,06,15.80
2015,06,22,04,07,15.80
2015,06,22,04,08,15.90
2015,06,22,04,09,15.90
2015,06,22,04,10,15.90
2015,06,22,04,11,16.00
2015,06,22,04,12,16.10
2015,06,22,04,13,16.10
2015,06,22,04,14,16.20
2015,06,22,04,15,16.30
2015,06,22,04,16,16.30
2015,06,22,04,17,16.40
2015,06,22,04,18,16.40
2015,06,22,04,19,16.40
2015,06,22,04,20,16.40
2015,06,22,04,21,16.40
2015,06,22,04,22,16.40
2015,06,22,04,23,16.40
2015,06,22,04,24,16.40
2015,06,22,04,25,16.50
2015,06,22,04,26,16.50
2015,06,22,04,27,16.50
2015,06,22,04,28,16.50
2015,06,22,04,29,16.50
2015,06,22,04,30,16.60
2015,06,22,04,31,16.60
2015,06,22,04,32,16.60
2015,06,22,04,33,16.60
2015,06,22,04,34,16.50
2015,06,22,04,35,16.50
2015,06,22,04,36,16.50
2015,06,22,04,37,16.50
2015,06,22,04,38,16.50
2015,06,22,04,39,16.40
2015,06,22,04,40,16.40
2015,06,22,04,41,16.30
2015,06,22,04,42,16.30
2015,06,22,04,43,16.20
2015,06,22,04,44,16.00
2015,06,22,04,45,15.90
2015,06,22,04,46,15.80
2015,06,22,04,47,15.60
2015,06,22,04,48,15.40
2015,06,22,04,49,15.20
2015,06,22,04,50,15.10
2015,06,22,04,51,14.90
2015,06,22,04,52,14.70
2015,06,22,04,53,14.50
2015,06,22,04,54,14.30
2015,06,22,04,55,14.10
2015,06,22,04,56,14.00
2015,06,22,04,57,13.80
2015,06,22,04,58,13.70
2015,06,22,04,59,13.60
2015,06,22,05,00,13.50
2015,06,22,05,01,13.40
2015,06,22,05,02,13.30
2015,06,22,05,03,13.20
2015,06,22,05,04,13.20
2015,06,22,05,05,13.20
2015,06,22,05,06,13.20
2015,06,22,05,07,13.20
2015,06,22,05,08,13.20
2015,06,22,05,09,13.10
2015,06,22,05,10,13.10
2015,06,22,05,11,13.10
2015,06,22,05,12,13.10
2015,06,22,05,13,13.10
2015,06,22,05,14,13.10
2015,06,22,05,15,13.10
2015,06,22,05,16,13.10
2015,06,22,05,17,13.10
2015,06,22,05,18,13.00
2015,06,22,05,19,13.00
2015,06,22,05,20,13.00
2015,06,22,05,21,13.00
2015,06,22,05,22,13.00
2015,06,22,05,23,13.00
2015,06,22,05,24,13.00
2015,06,22,05,25,13.00
2015,06,22,05,26,13.00
2015,06,22,05,27,13.00
2015,06,22,05,28,13.10
2015,06,22,05,29,13.10
2015,06,22,05,30,13.10
2015,06,22,05,31,13.20
2015,06,22,05,32,13.30
2015,06,22,05,33,13.30
2015,06,22,05,34,13.40
2015,06,22,05,35,13.40
2015,06,22,05,36,13.50
2015,06,22,05,37,13.50
2015,06,22,05,38,13.50
2015,06,22,05,39,13.60
2015,06,22,05,40,13.60
2015,06,22,05,41,13.60
2015,06,22,05,42,13.60
2015,06,22,05,43,13.70
2015,06,22,05,44,13.70
2015,06,22,05,45,13.70
2015,06,22,05,46,13.70
2015,06,22,05,47,13.70
2015,06,22,05,48,13.80
2015,06,22,05,49,13.80
2015,06,22,05,50,13.80
2015,06,22,05,51,13.80
2015,06,22,05,52,13.90
2015,06,22,05,53,13.90
2015,06,22,05,54,13.90
2015,06,22,05,55,13.90
2015,06,22,05,56,13.90
2015,06,22,05,57,13.90
2015,06,22,05,58,13.90
2015,06,22,05,59,14.00
2015,06,22,06,00,14.00
2015,06,22,06,01,14.00
2015,06,22,06,02,14.00
2015,06,22,06,03,14.10
2015,06,22,06,04,14.10
2015,06,22,06,05,14.10
2015,06,22,06,06,14.10
2015,06,22,06,07,14.10
2015,06,22,06,08,14.20
2015,06,22,06,09,14.20
2015,06,22,06,10,14.20
2015,06,22,06,11,14.20
2015,06,22,06,12,14.20
2015,06,22,06,13,14.30
2015,06,22,06,14,14.30
2015,06,22,06,15,14.30
2015,06,22,06,16,14.30
2015,06,22,06,17,14.40
2015,06,22,06,18,14.50
2015,06,22,06,19,14.50
2015,06,22,06,20,14.60
2015,06,22,06,21,14.70
2015,06,22,06,22,14.70
2015,06,22,06,23,14.80
2015,06,22,06,24,14.80
2015,06,22,06,25,14.90
2015,06,22,06,26,14.90
2015,06,22,06,27,15.00
2015,06,22,06,28,15.10
2015,06,22,06,29,15.10
2015,06,22,06,30,15.10
2015,06,22,06,31,15.20
2015,06,22,06,32,15.20
2015,06,22,06,33,15.20
2015,06,22,06,34,15.20
2015,06,22,06,35,15.30
2015,06,22,06,36,15.30
2015,06,22,06,37,15.30
2015,06,22,06,38,15.40
2015,06,22,06,39,15.50
2015,06,22,06,40,15.60
2015,06,22,06,41,15.70
2015,06,22,06,42,15.70
2015,06,22,06,43,15.80
2015,06,22,06,44,15.80
2015,06,22,06,45,15.80
2015,06,22,06,46,15.80
2015,06,22,06,47,15.80
2015,06,22,06,48,15.70
2015,06,22,06,49,15.70
2015,06,22,06,50,15.60
2015,06,22,06,51,15.50
2015,06,22,06,52,15.40
2015,06,22,06,53,15.40
2015,06,22,06,54,15.30
2015,06,22,06,55,15.30
2015,06,22,06,56,15.20
2015,06,22,06,57,15.20
2015,06,22,06,58,15.10
2015,06,22,06,59,15.10
2015,06,22,07,00,15.10
2015,06,22,07,01,15.10
2015,06,22,07,02,15.20
2015,06,22,07,03,15.20
2015,06,22,07,04,15.20
2015,06,22,07,05,15.20
2015,06,22,07,06,15.20
2015,06,22,07,07,15.20
2015,06,22,07,08,15.20
2015,06,22,07,09,15.20
2015,06,22,07,10,15.20
2015,06,22,07,11,15.20
2015,06,22,07,12,15.20
2015,06,22,07,13,15.20
2015,06,22,07,14,15.30
2015,06,22,07,15,15.40
2015,06,22,07,16,15.50
2015,06,22,07,17,15.60
2015,06,22,07,18,15.80
2015,06,22,07,19,15.90
2015,06,22,07,20,16.00
2015,06,22,07,21,16.10
2015,06,22,07,22,16.20
2015,06,22,07,23,16.20
2015,06,22,07,24,16.30
2015,06,22,07,25,16.40
2015,06,22,07,26,16.50
2015,06,22,07,27,16.50
2015,06,22,07,28,16.60
2015,06,22,07,29,16.70
2015,06,22,07,30,16.80
2015,06,22,07,31,16.90
2015,06,22,07,32,17.00
2015,06,22,07,33,17.00
2015,06,22,07,34,17.10
2015,06,22,07,35,17.10
2015,06,22,07,36,17.20
2015,06,22,07,37,17.30
2015,06,22,07,38,17.30
2015,06,22,07,39,17.30
2015,06,22,07,40,17.40
2015,06,22,07,41,17.50
2015,06,22,07,42,17.50
2015,06,22,07,43,17.60
2015,06,22,07,44,17.60
2015,06,22,07,45,17.70
2015,06,22,07,46,17.70
2015,06,22,07,47,17.70
2015,06,22,07,48,17.70
2015,06,22,07,49,17.70
2015,06,22,07,50,17.60
2015,06,22,07,51,17.60
2015,06,22,07,52,17.60
2015,06,22,07,53,17.60
2015,06,22,07,54,17.60
2015,06,22,07,55,17.60
2015,06,22,07,56,17.60
2015,06,22,07,57,17.60
2015,06,22,07,58,17.60
2015,06,22,07,59,17.60
2015,06,22,08,00,17.70
2015,06,22,08,01,17.70
2015,06,22,08,02,17.70
2015,06,22,08,03,17.70
2015,06,22,08,04,17.80
2015,06,22,08,05,17.80
2015,06,22,08,06,17.80
2015,06,22,08,07,17.90
2015,06,22,08,08,17.90
2015,06,22,08,09,18.00
2015,06,22,08,10,18.10
2015,06,22,08,11,18.10
2015,06,22,08,12,18.10
2015,06,22,08,13,18.20
2015,06,22,08,14,18.20
2015,06,22,08,15,18.30
2015,06,22,08,16,18.40
2015,06,22,08,17,18.40
2015,06,22,08,18,18.50
2015,06,22,08,19,18.60
2015,06,22,08,20,18.60
2015,06,22,08,21,18.70
2015,06,22,08,22,18.70
2015,06,22,08,23,18.70
2015,06,22,08,24,18.80
2015,06,22,08,25,18.80
2015,06,22,08,26,18.80
2015,06,22,08,27,18.90
2015,06,22,08,28,19.00
2015,06,22,08,29,19.10
2015,06,22,08,30,19.10
2015,06,22,08,31,19.00
2015,06,22,08,32,19.00
2015,06,22,08,33,18.90
2015,06,22,08,34,18.90
2015,06,22,08,35,18.90
2015,06,22,08,36,18.90
2015,06,22,08,37,18.80
2015,06,22,08,38,18.80
2015,06,22,08,39,18.70
2015,06,22,08,40,18.70
2015,06,22,08,41,18.70
2015,06,22,08,42,18.70
2015,06,22,08,43,18.70
2015,06,22,08,44,18.70
2015,06,22,08,45,18.60
2015,06,22,08,46,18.60
2015,06,22,08,47,18.60
2015,06,22,08,48,18.60
2015,06,22,08,49,18.70
2015,06,22,08,50,18.70
2015,06,22,08,51,18.70
2015,06,22,08,52,18.70
2015,06,22,08,53,18.70
2015,06,22,08,54,18.70
2015,06,22,08,55,18.70
2015,06,22,08,56,18.70
2015,06,22,08,57,18.70
2015,06,22,08,58,18.70
2015,06,22,08,59,18.70
2015,06,22,09,00,18.60
2015,06,22,09,01,18.60
2015,06,22,09,02,18.60
2015,06,22,09,03,18.60
2015,06,22,09,04,18.60
2015,06,22,09,05,18.60
2015,06,22,09,06,18.70
2015,06,22,09,07,18.70
2015,06,22,09,08,18.70
2015,06,22,09,09,18.70
2015,06,22,09,10,18.80
2015,06,22,09,11,18.80
2015,06,22,09,12,18.90
2015,06,22,09,13,18.90
2015,06,22,09,14,19.00
2015,06,22,09,15,19.00
2015,06,22,09,16,19.10
2015,06,22,09,17,19.10
2015,06,22,09,18,19.20
2015,06,22,09,19,19.30
2015,06,22,09,20,19.30
2015,06,22,09,21,19.50
2015,06,22,09,22,19.60
2015,06,22,09,23,19.70
2015,06,22,09,24,19.80
2015,06,22,09,25,19.90
2015,06,22,09,26,20.00
2015,06,22,09,27,20.10
2015,06,22,09,28,20.10
2015,06,22,09,29,20.10
2015,06,22,09,30,20.10
2015,06,22,09,31,20.10
2015,06,22,09,32,20.10
2015,06,22,09,33,20.10
2015,06,22,09,34,20.20
2015,06,22,09,35,20.20
2015,06,22,09,36,20.10
2015,06,22,09,37,20.10
2015,06,22,09,38,20.10
2015,06,22,09,39,20.10
2015,06,22,09,40,20.10
2015,06,22,09,41,20.20
2015,06,22,09,42,20.30
2015,06,22,09,43,20.40
2015,06,22,09,44,20.50
2015,06,22,09,45,20.60
2015,06,22,09,46,20.60
2015,06,22,09,47,20.70
2015,06,22,09,48,20.70
2015,06,22,09,49,20.80
2015,06,22,09,50,20.80
2015,06,22,09,51,20.90
2015,06,22,09,52,20.90
2015,06,22,09,53,21.00
2015,06,22,09,54,21.00
2015,06,22,09,55,21.00
2015,06,22,09,56,20.90
2015,06,22,09,57,20.90
2015,06,22,09,58,20.80
2015,06,22,09,59,20.80
2015,06,22,10,00,20.70
2015,06,22,10,01,20.60
2015,06,22,10,02,20.50
2015,06,22,10,03,20.40
2015,06,22,10,04,20.30
2015,06,22,10,05,20.30
2015,06,22,10,06,20.30
2015,06,22,10,07,20.20
2015,06,22,10,08,20.20
2015,06,22,10,09,20.20
2015,06,22,10,10,20.20
2015,06,22,10,11,20.20
2015,06,22,10,12,20.20
2015,06,22,10,13,20.20
2015,06,22,10,14,20.30
2015,06,22,10,15,20.40
2015,06,22,10,16,20.40
2015,06,22,10,17,20.50
2015,06,22,10,18,20.50
2015,06,22,10,19,20.50
2015,06,22,10,20,20.50
2015,06,22,10,21,20.40
2015,06,22,10,22,20.40
2015,06,22,10,23,20.40
2015,06,22,10,24,20.30
2015,06,22,10,25,20.30
2015,06,22,10,26,20.30
2015,06,22,10,27,20.40
2015,06,22,10,28,20.40
2015,06,22,10,29,20.50
2015,06,22,10,30,20.70
2015,06,22,10,31,20.80
2015,06,22,10,32,20.90
2015,06,22,10,33,21.00
2015,06,22,10,34,21.00
2015,06,22,10,35,21.00
2015,06,22,10,36,21.00
2015,06,22,10,37,21.00
2015,06,22,10,38,20.90
2015,06,22,10,39,20.80
2015,06,22,10,40,20.70
2015,06,22,10,41,20.70
2015,06,22,10,42,20.60
2015,06,22,10,43,20.60
2015,06,22,10,44,20.50
2015,06,22,10,45,20.50
2015,06,22,10,46,20.40
2015,06,22,10,47,20.30
2015,06,22,10,48,20.30
2015,06,22,10,49,20.30
2015,06,22,10,50,20.30
2015,06,22,10,51,20.40
2015,06,22,10,52,20.40
2015,06,22,10,53,20.40
2015,06,22,10,54,20.50
2015,06,22,10,55,20.50
2015,06,22,10,56,20.60
2015,06,22,10,57,20.60
2015,06,22,10,58,20.60
2015,06,22,10,59,20.60
2015,06,22,11,00,20.60
2015,06,22,11,01,20.70
2015,06,22,11,02,20.70
2015,06,22,11,03,20.70
2015,06,22,11,04,20.70
2015,06,22,11,05,20.80
2015,06,22,11,06,20.80
2015,06,22,11,07,20.90
2015,06,22,11,08,21.00
2015,06,22,11,09,21.00
2015,06,22,11,10,21.00
2015,06,22,11,11,20.90
2015,06,22,11,12,20.90
2015,06,22,11,13,20.90
2015,06,22,11,14,20.90
2015,06,22,11,15,20.90
2015,06,22,11,16,21.00
2015,06,22,11,17,21.10
2015,06,22,11,18,21.30
2015,06,22,11,19,21.50
2015,06,22,11,20,21.50
2015,06,22,11,21,21.50
2015,06,22,11,22,21.30
2015,06,22,11,23,21.30
2015,06,22,11,24,21.30
2015,06,22,11,25,21.20
2015,06,22,11,26,21.10
2015,06,22,11,27,21.00
2015,06,22,11,28,21.00
2015,06,22,11,29,21.00
2015,06,22,11,30,21.00
2015,06,22,11,31,20.90
2015,06,22,11,32,20.90
2015,06,22,11,33,20.80
2015,06,22,11,34,20.80
2015,06,22,11,35,20.90
2015,06,22,11,36,20.90
2015,06,22,11,37,20.90
2015,06,22,11,38,20.90
2015,06,22,11,39,20.90
2015,06,22,11,40,20.90
2015,06,22,11,41,20.90
2015,06,22,11,42,20.80
2015,06,22,11,43,20.80
2015,06,22,11,44,20.80
2015,06,22,11,45,20.80
2015,06,22,11,46,20.80
2015,06,22,11,47,20.80
2015,06,22,11,48,20.70
2015,06,22,11,49,20.70
2015,06,22,11,50,20.60
2015,06,22,11,51,20.70
2015,06,22,11,52,20.70
2015,06,22,11,53,20.70
2015,06,22,11,54,20.80
2015,06,22,11,55,20.80
2015,06,22,11,56,20.90
2015,06,22,11,57,21.00
2015,06,22,11,58,21.10
2015,06,22,11,59,21.10
2015,06,22,12,00,21.10
2015,06,22,12,01,21.30
2015,06,22,12,02,21.50
2015,06,22,12,03,21.60
2015,06,22,12,04,21.60
2015,06,22,12,05,21.60
2015,06,22,12,06,21.50
2015,06,22,12,07,21.50
2015,06,22,12,08,21.50
2015,06,22,12,09,21.50
2015,06,22,12,10,21.40
2015,06,22,12,11,21.40
2015,06,22,12,12,21.50
2015,06,22,12,13,21.50
2015,06,22,12,14,21.60
2015,06,22,12,15,21.60
2015,06,22,12,16,21.60
2015,06,22,12,17,21.60
2015,06,22,12,18,21.50
2015,06,22,12,19,21.50
2015,06,22,12,20,21.50
2015,06,22,12,21,21.50
2015,06,22,12,22,21.50
2015,06,22,12,23,21.50
2015,06,22,12,24,21.50
2015,06,22,12,25,21.40
2015,06,22,12,26,21.40
2015,06,22,12,27,21.30
2015,06,22,12,28,21.30
2015,06,22,12,29,21.30
2015,06,22,12,30,21.30
2015,06,22,12,31,21.30
2015,06,22,12,32,21.40
2015,06,22,12,33,21.40
2015,06,22,12,34,21.40
2015,06,22,12,35,21.30
2015,06,22,12,36,21.30
2015,06,22,12,37,21.20
2015,06,22,12,38,21.20
2015,06,22,12,39,21.20
2015,06,22,12,40,21.20
2015,06,22,12,41,21.20
2015,06,22,12,42,21.20
2015,06,22,12,43,21.20
2015,06,22,12,44,21.20
2015,06,22,12,45,21.10
2015,06,22,12,46,21.10
2015,06,22,12,47,21.20
2015,06,22,12,48,21.20
2015,06,22,12,49,21.30
2015,06,22,12,50,21.30
2015,06,22,12,51,21.30
2015,06,22,12,52,21.30
2015,06,22,12,53,21.30
2015,06,22,12,54,21.30
2015,06,22,12,55,21.20
2015,06,22,12,56,21.20
2015,06,22,12,57,21.20
2015,06,22,12,58,21.20
2015,06,22,12,59,21.30
2015,06,22,13,00,21.20
2015,06,22,13,01,21.20
2015,06,22,13,02,21.30
2015,06,22,13,03,21.30
2015,06,22,13,04,21.30
2015,06,22,13,05,21.40
2015,06,22,13,06,21.40
2015,06,22,13,07,21.40
2015,06,22,13,08,21.30
2015,06,22,13,09,21.30
2015,06,22,13,10,21.30
2015,06,22,13,11,21.30
2015,06,22,13,12,21.40
2015,06,22,13,13,21.50
2015,06,22,13,14,21.60
2015,06,22,13,15,21.70
2015,06,22,13,16,21.80
2015,06,22,13,17,21.90
2015,06,22,13,18,21.90
2015,06,22,13,19,21.90
2015,06,22,13,20,21.90
2015,06,22,13,21,22.00
2015,06,22,13,22,22.00
2015,06,22,13,23,22.10
2015,06,22,13,24,22.10
2015,06,22,13,25,22.10
2015,06,22,13,26,22.10
2015,06,22,13,27,22.10
2015,06,22,13,28,22.20
2015,06,22,13,29,22.20
2015,06,22,13,30,22.20
2015,06,22,13,31,22.30
2015,06,22,13,32,22.30
2015,06,22,13,33,22.30
2015,06,22,13,34,22.30
2015,06,22,13,35,22.20
2015,06,22,13,36,22.20
2015,06,22,13,37,22.20
2015,06,22,13,38,22.10
2015,06,22,13,39,22.10
2015,06,22,13,40,22.10
2015,06,22,13,41,22.10
2015,06,22,13,42,22.10
2015,06,22,13,43,22.10
2015,06,22,13,44,22.10
2015,06,22,13,45,22.10
2015,06,22,13,46,22.10
2015,06,22,13,47,22.10
2015,06,22,13,48,22.20
2015,06,22,13,49,22.20
2015,06,22,13,50,22.30
2015,06,22,13,51,22.30
2015,06,22,13,52,22.30
2015,06,22,13,53,22.30
2015,06,22,13,54,22.30
2015,06,22,13,55,22.30
2015,06,22,13,56,22.30
2015,06,22,13,57,22.30
2015,06,22,13,58,22.30
2015,06,22,13,59,22.30
2015,06,22,14,00,22.20
2015,06,22,14,01,22.10
2015,06,22,14,02,22.10
2015,06,22,14,03,22.10
2015,06,22,14,04,22.00
2015,06,22,14,05,21.90
2015,06,22,14,06,21.90
2015,06,22,14,07,21.90
2015,06,22,14,08,21.80
2015,06,22,14,09,21.80
2015,06,22,14,10,21.80
2015,06,22,14,11,21.70
2015,06,22,14,12,21.70
2015,06,22,14,13,21.70
2015,06,22,14,14,21.70
2015,06,22,14,15,21.70
2015,06,22,14,16,21.80
2015,06,22,14,17,21.80
2015,06,22,14,18,21.90
2015,06,22,14,19,21.90
2015,06,22,14,20,21.90
2015,06,22,14,21,21.80
2015,06,22,14,22,21.80
2015,06,22,14,23,21.80
2015,06,22,14,24,21.70
2015,06,22,14,25,21.60
2015,06,22,14,26,21.50
2015,06,22,14,27,21.50
2015,06,22,14,28,21.50
2015,06,22,14,29,21.50
2015,06,22,14,30,21.50
2015,06,22,14,31,21.50
2015,06,22,14,32,21.50
2015,06,22,14,33,21.50
2015,06,22,14,34,21.50
2015,06,22,14,35,21.40
2015,06,22,14,36,21.40
2015,06,22,14,37,21.40
2015,06,22,14,38,21.30
2015,06,22,14,39,21.30
2015,06,22,14,40,21.30
2015,06,22,14,41,21.30
2015,06,22,14,42,21.30
2015,06,22,14,43,21.40
2015,06,22,14,44,21.40
2015,06,22,14,45,21.50
2015,06,22,14,46,21.60
2015,06,22,14,47,21.60
2015,06,22,14,48,21.70
2015,06,22,14,49,21.80
2015,06,22,14,50,21.90
2015,06,22,14,51,22.00
2015,06,22,14,52,22.10
2015,06,22,14,53,22.10
2015,06,22,14,54,22.10
2015,06,22,14,55,22.20
2015,06,22,14,56,22.20
2015,06,22,14,57,22.20
2015,06,22,14,58,22.10
2015,06,22,14,59,22.10
2015,06,22,15,00,22.10
2015,06,22,15,01,22.10
2015,06,22,15,02,22.00
2015,06,22,15,03,22.00
2015,06,22,15,04,21.90
2015,06,22,15,05,21.90
2015,06,22,15,06,21.90
2015,06,22,15,07,21.90
2015,06,22,15,08,22.00
2015,06,22,15,09,22.00
2015,06,22,15,10,22.00
2015,06,22,15,11,22.10
2015,06,22,15,12,22.20
2015,06,22,15,13,22.30
2015,06,22,15,14,22.40
2015,06,22,15,15,22.40
2015,06,22,15,16,22.40
2015,06,22,15,17,22.50
2015,06,22,15,18,22.50
2015,06,22,15,19,22.50
2015,06,22,15,20,22.50
2015,06,22,15,21,22.50
2015,06,22,15,22,22.50
2015,06,22,15,23,22.50
2015,06,22,15,24,22.50
2015,06,22,15,25,22.50
2015,06,22,15,26,22.50
2015,06,22,15,27,22.60
2015,06,22,15,28,22.60
2015,06,22,15,29,22.70
2015,06,22,15,30,22.70
2015,06,22,15,31,22.70
2015,06,22,15,32,22.70
2015,06,22,15,33,22.70
2015,06,22,15,34,22.70
2015,06,22,15,35,22.60
2015,06,22,15,36,22.60
2015,06,22,15,37,22.60
2015,06,22,15,38,22.60
2015,06,22,15,39,22.60
2015,06,22,15,40,22.70
2015,06,22,15,41,22.70
2015,06,22,15,42,22.70
2015,06,22,15,43,22.60
2015,06,22,15,44,22.50
2015,06,22,15,45,22.40
2015,06,22,15,46,22.30
2015,06,22,15,47,22.20
2015,06,22,15,48,22.10
2015,06,22,15,49,22.10
2015,06,22,15,50,22.20
2015,06,22,15,51,22.20
2015,06,22,15,52,22.20
2015,06,22,15,53,22.20
2015,06,22,15,54,22.30
2015,06,22,15,55,22.30
2015,06,22,15,56,22.30
2015,06,22,15,57,22.30
2015,06,22,15,58,22.30
2015,06,22,15,59,22.30
2015,06,22,16,00,22.20
2015,06,22,16,01,22.20
2015,06,22,16,02,22.20
2015,06,22,16,03,22.20
2015,06,22,16,04,22.30
2015,06,22,16,05,22.30
2015,06,22,16,06,22.30
2015,06,22,16,07,22.20
2015,06,22,16,08,22.20
2015,06,22,16,09,22.20
2015,06,22,16,10,22.20
2015,06,22,16,11,22.20
2015,06,22,16,12,22.20
2015,06,22,16,13,22.10
2015,06,22,16,14,22.20
2015,06,22,16,15,22.20
2015,06,22,16,16,22.20
2015,06,22,16,17,22.30
2015,06,22,16,18,22.30
2015,06,22,16,19,22.30
2015,06,22,16,20,22.30
2015,06,22,16,21,22.20
2015,06,22,16,22,22.20
2015,06,22,16,23,22.10
2015,06,22,16,24,22.10
2015,06,22,16,25,22.10
2015,06,22,16,26,22.10
2015,06,22,16,27,22.20
2015,06,22,16,28,22.20
2015,06,22,16,29,22.20
2015,06,22,16,30,22.20
2015,06,22,16,31,22.30
2015,06,22,16,32,22.30
2015,06,22,16,33,22.20
2015,06,22,16,34,22.20
2015,06,22,16,35,22.20
2015,06,22,16,36,22.10
2015,06,22,16,37,22.00
2015,06,22,16,38,21.90
2015,06,22,16,39,21.90
2015,06,22,16,40,21.80
2015,06,22,16,41,21.80
2015,06,22,16,42,21.90
2015,06,22,16,43,21.90
2015,06,22,16,44,21.90
2015,06,22,16,45,21.90
2015,06,22,16,46,22.00
2015,06,22,16,47,22.10
2015,06,22,16,48,22.10
2015,06,22,16,49,22.10
2015,06,22,16,50,22.10
2015,06,22,16,51,22.10
2015,06,22,16,52,22.10
2015,06,22,16,53,22.10
2015,06,22,16,54,22.00
2015,06,22,16,55,22.00
2015,06,22,16,56,22.10
2015,06,22,16,57,22.10
2015,06,22,16,58,22.10
2015,06,22,16,59,22.10
2015,06,22,17,00,22.20
2015,06,22,17,01,22.10
2015,06,22,17,02,22.10
2015,06,22,17,03,22.10
2015,06,22,17,04,22.10
2015,06,22,17,05,22.10
2015,06,22,17,06,22.10
2015,06,22,17,07,22.10
2015,06,22,17,08,22.10
2015,06,22,17,09,22.10
2015,06,22,17,10,22.10
2015,06,22,17,11,22.10
2015,06,22,17,12,22.10
2015,06,22,17,13,22.10
2015,06,22,17,14,22.10
2015,06,22,17,15,22.00
2015,06,22,17,16,22.00
2015,06,22,17,17,22.00
2015,06,22,17,18,22.00
2015,06,22,17,19,22.00